Weather History for YBPN - April, 2014

Change the Weather History Date:

Thursday, April 10, 2014

  Actual Average Record
Temperature  
Mean Temperature 75 °F -  
Max Temperature 82 °F - - ()
Min Temperature 68 °F - - ()
Cooling Degree Days 10    
Growing Degree Days 25 (Base 50)    
Moisture  
Dew Point 69 °F    
Average Humidity 80    
Maximum Humidity 94    
Minimum Humidity 58    
Precipitation  
Precipitation 0.00 in - - ()
Sea Level Pressure  
Sea Level Pressure 29.90 in    
Wind  
Wind Speed 8 mph ()    
Max Wind Speed 17 mph    
Max Gust Speed -    
Visibility 6.9 miles    
Events      
T = Trace of Precipitation, MM = Missing Value Source: Averaged Metar Reports

Daily Weather History Graph

Daily Weather History Graph

Search for Another Location

Airport or City:

Trip Planner

Search our weather history database for the weather conditions in past years. The results will help you decide how hot, cold, wet, or windy it might be!

Date:

Astronomy

Apr. 10, 2014 Rise Set
Actual Time 6:15 AM AEST 5:58 PM AEST
Civil Twilight 5:53 AM AEST 6:20 PM AEST
Nautical Twilight 5:27 AM AEST 6:46 PM AEST
Astronomical Twilight 5:01 AM AEST 7:12 PM AEST
Moon 2:35 PM AEST (4/10) 1:39 AM AEST (4/10)
Length of Visible Light 12h 27m
Length of Day
11h 43m
Waxing Gibbous, 75% of the Moon is Illuminated
Apr 10
Waxing Gibbous
Apr 15
Full
Apr 22
Last Quarter
Apr 29
New
May 7
First Quarter

Hourly Weather History & Observations

Time (AEST) Temp. Heat Index Dew Point Humidity Pressure Visibility Wind Dir Wind Speed Gust Speed Precip Events Conditions
12:00 AM 69 °F - 66 °F 87% 29.96 in - SSW 6.9 mph - -  
12:00 AM 69.8 °F - 66.2 °F 88% 29.95 in 6.2 mi SSW 6.9 mph - N/A   Scattered Clouds
1:00 AM 71.6 °F - 68.0 °F 88% 29.92 in 6.2 mi South 9.2 mph - N/A   Overcast
2:00 AM 71.6 °F - 68.0 °F 88% 29.92 in 6.2 mi South 6.9 mph - N/A   Mostly Cloudy
3:00 AM 71 °F - 68 °F 87% 29.91 in - South 6.9 mph - -  
3:00 AM 71.6 °F - 68.0 °F 88% 29.89 in 6.2 mi South 6.9 mph - N/A   Overcast
4:00 AM 69.8 °F - 68.0 °F 94% 29.89 in 6.2 mi Calm Calm - N/A   Overcast
5:00 AM 69.8 °F - 66.2 °F 88% 29.89 in 6.2 mi SSE 5.8 mph - N/A   Mostly Cloudy
6:00 AM 70 °F - 67 °F 86% 29.92 in - South 8.1 mph - -  
6:00 AM 69.8 °F - 66.2 °F 88% 29.92 in 6.2 mi South 8.1 mph - N/A   Unknown
7:00 AM 69.8 °F - 68.0 °F 94% 29.92 in 6.2 mi South 5.8 mph - N/A   Unknown
8:00 AM 75.2 °F - 69.8 °F 83% 29.95 in 6.2 mi South 10.4 mph - N/A   Unknown
9:00 AM 79 °F - 69 °F 65% 29.95 in 12 mi ESE 12.7 mph - -   Partly Cloudy
9:00 AM 78.8 °F - 69.8 °F 74% 29.95 in 6.2 mi ESE 11.5 mph - N/A   Scattered Clouds
10:00 AM 80.6 °F 83.9 °F 69.8 °F 70% 29.95 in 6.2 mi SE 17.3 mph - N/A   Scattered Clouds
11:00 AM 80.6 °F 83.9 °F 69.8 °F 70% 29.92 in 6.2 mi ESE 13.8 mph - N/A   Scattered Clouds
12:00 PM 80 °F - 68 °F 60% 29.91 in - ESE 13.8 mph - -  
12:00 PM 80.6 °F 83.9 °F 69.8 °F 70% 29.89 in 6.2 mi ESE 13.8 mph - N/A   Mostly Cloudy
1:00 PM 82.4 °F 86.3 °F 69.8 °F 66% 29.86 in 6.2 mi ESE 16.1 mph - N/A   Scattered Clouds
2:00 PM 82.4 °F 86.3 °F 69.8 °F 66% 29.86 in 6.2 mi ESE 12.7 mph - N/A   Unknown
3:00 PM 82 °F - 69 °F 58% 29.85 in 19 mi ESE 12.7 mph - -   Partly Cloudy
3:00 PM 80.6 °F 83.9 °F 69.8 °F 70% 29.83 in 6.2 mi ESE 12.7 mph - N/A   Scattered Clouds
4:00 PM 80.6 °F 83.2 °F 68.0 °F 65% 29.83 in 6.2 mi ESE 13.8 mph - N/A   Scattered Clouds
5:00 PM 78.8 °F - 68.0 °F 69% 29.86 in 6.2 mi ESE 11.5 mph - N/A   Scattered Clouds
6:00 PM 76 °F - 69 °F 74% 29.88 in - ESE 8.1 mph - -  
6:00 PM 75.2 °F - 69.8 °F 83% 29.86 in 6.2 mi ESE 8.1 mph - N/A   Unknown
7:00 PM 73.4 °F - 68.0 °F 83% 29.89 in 6.2 mi ESE 4.6 mph - N/A   Unknown
8:00 PM 73.4 °F - 69.8 °F 88% 29.89 in 6.2 mi South 3.5 mph - N/A   Scattered Clouds
9:00 PM 72 °F - 70 °F 91% 29.91 in - South 4.6 mph - -  
9:00 PM 73.4 °F - 69.8 °F 88% 29.92 in 6.2 mi South 4.6 mph - N/A   Overcast
10:00 PM 73.4 °F - 71.6 °F 94% 29.92 in 6.2 mi South 3.5 mph - N/A   Overcast
11:00 PM 73.4 °F - 69.8 °F 88% 29.89 in 6.2 mi SSW 4.6 mph - N/A   Overcast